This is the latest recevied weather packets stored in our database for station/object KL4TQ. If no packets are shown the sender has not sent any weather packets the latest 10 day(s).
| Time | Temp. | Humidity | Pressure | Rain* | Wind** | Luminosity | Snow |
|---|---|---|---|---|---|---|---|
| 1778103968 | 2.78° C | 57% | 857 hPa | 0 mm | - | 672 W/m² | - |
| 1778103671 | 2.78° C | 58% | 857 hPa | 0 mm | - | 658 W/m² | - |
| 1778103369 | 2.78° C | 57% | 857 hPa | 0 mm | - | 783 W/m² | - |
| 1778103069 | 2.78° C | 55% | 857 hPa | 0 mm | - | 736 W/m² | - |
| 1778102769 | 2.78° C | 57% | 857 hPa | 0 mm | - | 641 W/m² | - |
| 1778102468 | 2.78° C | 60% | 857 hPa | 0 mm | - | 640 W/m² | - |
| 1778102168 | 2.78° C | 62% | 857 hPa | 0 mm | - | 668 W/m² | - |
| 1778101869 | 2.22° C | 65% | 857 hPa | 0 mm | - | 625 W/m² | - |
| 1778101568 | 2.22° C | 65% | 857 hPa | 0 mm | - | 619 W/m² | - |
| 1778101269 | 2.22° C | 66% | 857 hPa | 0 mm | - | 638 W/m² | - |
| 1778100969 | 2.22° C | 68% | 857 hPa | 0 mm | - | 654 W/m² | - |
| 1778100669 | 2.22° C | 68% | 857 hPa | 0 mm | - | 581 W/m² | - |
| 1778100368 | 1.67° C | 72% | 857 hPa | 0 mm | - | 689 W/m² | - |
| 1778100069 | 1.67° C | 73% | 857 hPa | 0 mm | - | 674 W/m² | - |
| 1778099768 | 1.67° C | 72% | 857 hPa | 0 mm | - | 546 W/m² | - |
| 1778099469 | 1.67° C | 72% | 857 hPa | 0 mm | - | 595 W/m² | - |
| 1778099168 | 1.67° C | 74% | 857 hPa | 0 mm | - | 351 W/m² | - |
| 1778098869 | 1.67° C | 75% | 857 hPa | 0 mm | - | 725 W/m² | - |
| 1778098569 | 1.67° C | 75% | 857 hPa | 0 mm | - | 575 W/m² | - |
| 1778098269 | 1.67° C | 78% | 857 hPa | 0 mm | - | 816 W/m² | - |
| 1778097969 | 1.11° C | 79% | 857 hPa | 0 mm | - | 552 W/m² | - |
| 1778097669 | 1.11° C | 78% | 857 hPa | 0 mm | - | 605 W/m² | - |
| 1778097368 | 0.56° C | 78% | 857 hPa | 0 mm | - | 383 W/m² | - |
| 1778097069 | 1.11° C | 81% | 857 hPa | 0 mm | - | 336 W/m² | - |
| 1778096769 | 0.56° C | 81% | 857 hPa | 0 mm | - | 386 W/m² | - |
* Rain latest hour (hover to see other rain measurements)
** Current wind speed in m/s (hover to see current wind gust speed)